Location: Nirvana
(45.0297°N, 77.2628°W)
Time: 21:04:40
(UTC-05:00)

Envisat - Pass Details

Date: 25 October 2019
Orbit: 764 x 766 km, 98.1° (Epoch: 18 November)

Event Time Altitude Azimuth Distance (km) Brightness Sun altitude
Rises 20:24:25 0° 207° (SSW) 3,220 6.5 -24.7°
Reaches altitude 10° 20:27:24 10° 225° (SW) 2,299 5.9 -25.2°
Maximum altitude 20:30:54 19° 269° (W) 1,780 5.7 -25.9°
Drops below altitude 10° 20:34:26 10° 314° (NW) 2,311 6.2 -26.5°
Sets 20:37:27 0° 332° (NNW) 3,242 6.8 -27.0°
